Location: Crayja
(6.2254°N, 10.6273°W)
Time: 08:48:47
(UTC+00:00)

STARLINK-76 - Pass Details

Date: 17 February 2020
Orbit: 529 x 530 km, 53.0° (Epoch: 09 April)

Event Time Altitude Azimuth Distance (km) Brightness Sun altitude
Exits shadow 05:55:49 27° 249° (WSW) 1,038 4.5 -16.1°
Maximum altitude 05:56:17 28° 237° (WSW) 1,020 4.6 -16.0°
Drops below altitude 10° 05:59:44 10° 177° (S) 1,767 6.4 -15.2°
Sets 06:02:10 0° 165° (SSE) 2,657 7.5 -14.6°
